Location: Mohawk View
(42.7837°N, 73.7885°W)
Time: 16:00:49
(UTC+00:00)

Cosmos 389 Rocket - Pass Details

Date: 17 June 2021
Orbit: 440 x 471 km, 81.1° (Epoch: 01 August)

Event Time Altitude Azimuth Distance (km) Brightness Sun altitude
Rises 04:14:00 0° 341° (NNW) 2,443 7.6 -23.1°
Reaches altitude 10° 04:16:09 10° 333° (NNW) 1,570 6.1 -23.2°
Enters shadow 04:18:44 34° 291° (WNW) 760 3.7 -23.3°
